{"data":{"norad_id":37931,"epoch":"2026-09-19T21:56:06.332352Z","epoch_age_seconds":79869,"freshness":"FRESH","line1":"1 37931U 11068B   26262.91396218  .00000060  00000+0  39824-4 0  9991","line2":"2 37931  98.6941 282.0134 0022076 225.8160 252.9767 14.31156310772440","mean_motion":14.3115631,"eccentricity":0.0022076,"inclination_deg":98.6941,"raan_deg":282.0134,"arg_perigee_deg":225.816,"mean_anomaly_deg":252.9767,"bstar":3.9824e-5,"rev_number":77244,"period_min":100.61794018852,"perigee_km":772.04867837304,"apogee_km":803.68802520225,"semimajor_km":7166.0053517876,"source":"CELESTRAK","updated_at":"2026-09-20T09:00:13.847769Z"}}